This is the latest recevied weather packets stored in our database for station/object WW6Q. If no packets are shown the sender has not sent any weather packets the latest 10 day(s).
| Time | Temp. | Humidity | Pressure | Rain* | Wind** | Luminosity | Snow |
|---|---|---|---|---|---|---|---|
| 1788264052 | 22.22° C | 92% | 1015.3 hPa | 0 mm | - | 38 W/m² | - |
| 1788263747 | 21.67° C | 93% | 1015.4 hPa | 0 mm | - | 31 W/m² | - |
| 1788263444 | 21.67° C | 93% | 1015.4 hPa | 0 mm | - | 29 W/m² | - |
| 1788263140 | 21.67° C | 93% | 1015.1 hPa | 0 mm | - | 25 W/m² | - |
| 1788262839 | 21.67° C | 93% | 1015.4 hPa | 0 mm | - | 19 W/m² | - |
| 1788262538 | 21.67° C | 94% | 1015.4 hPa | 0 mm | - | 12 W/m² | - |
| 1788262234 | 21.67° C | 94% | 1015.4 hPa | 0 mm | - | 10 W/m² | - |
| 1788261933 | 21.67° C | 94% | 1015 hPa | 0 mm | - | 9 W/m² | - |
| 1788261628 | 21.67° C | 94% | 1015.1 hPa | 0 mm | - | 7 W/m² | - |
| 1788261327 | 21.67° C | 94% | 1015 hPa | 0 mm | - | 6 W/m² | - |
| 1788261025 | 21.67° C | 94% | 1015.1 hPa | 0 mm | - | 4 W/m² | - |
| 1788260722 | 21.67° C | 94% | 1015 hPa | 0 mm | - | 2 W/m² | - |
| 1788260417 | 21.67° C | 94% | 1015 hPa | 0 mm | - | 1 W/m² | - |
| 1788260113 | 21.11° C | 94% | 1015.1 hPa | 0 mm | - | 0 W/m² | - |
| 1788259812 | 21.11° C | 94% | 1014.9 hPa | 0 mm | - | 0 W/m² | - |
| 1788259509 | 21.11° C | 95% | 1015 hPa | 0 mm | - | 0 W/m² | - |
| 1788259204 | 21.11° C | 95% | 1014.9 hPa | 0 mm | - | 0 W/m² | - |
| 1788258898 | 21.11° C | 96% | 1014.9 hPa | 0 mm | - | 0 W/m² | - |
| 1788258594 | 21.11° C | 96% | 1014.7 hPa | 0 mm | - | 0 W/m² | - |
| 1788258294 | 21.11° C | 96% | 1014.8 hPa | 0 mm | - | 0 W/m² | - |
| 1788257988 | 21.11° C | 96% | 1014.9 hPa | 0 mm | - | 0 W/m² | - |
| 1788257683 | 21.11° C | 96% | 1014.9 hPa | 0 mm | - | 0 W/m² | - |
| 1788257378 | 21.11° C | 95% | 1015.1 hPa | 0 mm | - | 0 W/m² | - |
| 1788257073 | 21.11° C | 95% | 1014.8 hPa | 0 mm | - | 0 W/m² | - |
| 1788256772 | 21.11° C | 94% | 1015 hPa | 0 mm | - | 0 W/m² | - |
* Rain latest hour (hover to see other rain measurements)
** Current wind speed in m/s (hover to see current wind gust speed)